| time (UTC) | temp F | wind direction | speed MPH | gust MPH | rain 1hr in | rain 24hr in | rain mn in | humidity % | barometer mb |
| 20260505010033 | 53 | 0 | 0.0 | 2.0 | 0.00 | 0.37 | 0.37 | 91 | 1013.8 |
| 20260505004538 | 53 | 0 | 0.0 | 0.0 | 0.07 | 0.36 | 0.36 | 92 | 1014.2 |
| 20260505003038 | 53 | 0 | 0.0 | 0.0 | 0.07 | 0.33 | 0.33 | 91 | 1014.5 |
| 20260505001543 | 53 | 0 | 0.0 | 0.0 | 0.07 | 0.32 | 0.32 | 91 | 1014.4 |
| 20260505000037 | 53 | 0 | 0.0 | 3.0 | 0.11 | 0.31 | 0.31 | 91 | 1014.3 |
| 20260504234535 | 53 | 0 | 0.0 | 2.0 | 0.11 | 0.28 | 0.28 | 91 | 1014.4 |
| 20260504233034 | 53 | 0 | 0.0 | 1.0 | 0.11 | 0.25 | 0.25 | 91 | 1014.4 |
| 20260504231541 | 54 | 0 | 0.0 | 3.0 | 0.10 | 0.24 | 0.24 | 91 | 1014.5 |
| 20260504230040 | 54 | 0 | 0.0 | 3.0 | 0.08 | 0.20 | 0.20 | 91 | 1014.7 |
| 20260504224545 | 55 | 0 | 0.0 | 2.0 | 0.07 | 0.17 | 0.17 | 91 | 1014.6 |
| 20260504223037 | 55 | 0 | 0.0 | 0.0 | 0.06 | 0.14 | 0.14 | 91 | 1014.7 |
| 20260504221542 | 55 | 0 | 0.0 | 0.0 | 0.06 | 0.14 | 0.14 | 91 | 1014.8 |
| 20260504220045 | 55 | 0 | 0.0 | 0.0 | 0.04 | 0.11 | 0.11 | 90 | 1014.9 |
| 20260504214536 | 55 | 0 | 0.0 | 0.0 | 0.04 | 0.10 | 0.10 | 90 | 1015.0 |
| 20260504213039 | 55 | 0 | 0.0 | 0.0 | 0.03 | 0.08 | 0.08 | 90 | 1015.0 |
| 20260504211537 | 55 | 0 | 0.0 | 0.0 | 0.04 | 0.07 | 0.07 | 89 | 1015.0 |
| 20260504210053 | 56 | 0 | 0.0 | 0.0 | 0.03 | 0.06 | 0.06 | 89 | 1015.0 |
| 20260504204551 | 56 | 0 | 0.0 | 0.0 | 0.03 | 0.05 | 0.05 | 89 | 1014.7 |
| 20260504203035 | 56 | 0 | 0.0 | 2.0 | 0.03 | 0.04 | 0.04 | 89 | 1014.9 |
| 20260504201539 | 56 | 0 | 0.0 | 3.0 | 0.02 | 0.03 | 0.03 | 87 | 1014.8 |
| 20260504200037 | 56 | 126 | 0.0 | 2.0 | 0.01 | 0.02 | 0.02 | 87 | 1014.7 |
| 20260504194537 | 56 | 0 | 0.0 | 0.0 | 0.00 | 0.00 | 0.00 | 86 | 1014.9 |
| 20260504193037 | 56 | 0 | 0.0 | 3.0 | 0.00 | 0.00 | 0.00 | 85 | 1015.1 |
| 20260504191535 | 56 | 126 | 0.0 | 5.0 | 0.00 | 0.00 | 0.00 | 86 | 1015.1 |
| 20260504190035 | 56 | 0 | 1.0 | 4.0 | 0.00 | 0.00 | 0.00 | 87 | 1015.0 |
| 20260504184535 | 56 | 126 | 0.0 | 4.0 | 0.00 | 0.00 | 0.00 | 87 | 1015.1 |
| 20260504183038 | 56 | 0 | 0.0 | 4.0 | 0.00 | 0.00 | 0.00 | 88 | 1015.2 |
| 20260504181539 | 56 | 0 | 0.0 | 2.0 | 0.00 | 0.00 | 0.00 | 88 | 1015.1 |
| 20260504180036 | 55 | 126 | 0.0 | 4.0 | 0.00 | 0.00 | 0.00 | 86 | 1015.0 |
| 20260504174537 | 56 | 126 | 0.0 | 2.0 | 0.00 | 0.00 | 0.00 | 83 | 1014.9 |
| 20260504173039 | 56 | 0 | 0.0 | 4.0 | 0.00 | 0.00 | 0.00 | 81 | 1014.7 |
| 20260504171541 | 56 | 0 | 0.0 | 4.0 | 0.00 | 0.00 | 0.00 | 80 | 1014.6 |
| 20260504081538 | 54 | 0 | 0.0 | 0.0 | 0.00 | 0.00 | 0.00 | 82 | 1013.1 |
| 20260504044536 | 59 | 0 | 0.0 | 2.0 | 0.00 | 0.00 | 0.00 | 70 | 1012.6 |
| 20260504043036 | 60 | 0 | 0.0 | 3.0 | 0.00 | 0.00 | 0.00 | 70 | 1012.6 |
| 20260504041542 | 60 | 189 | 0.0 | 4.0 | 0.00 | 0.00 | 0.00 | 69 | 1012.3 |
| 20260504040045 | 60 | 0 | 0.0 | 4.0 | 0.00 | 0.00 | 0.00 | 69 | 1012.0 |
| 20260504034547 | 61 | 189 | 0.0 | 5.0 | 0.00 | 0.00 | 0.00 | 68 | 1011.8 |
| 20260504033038 | 61 | 0 | 1.0 | 5.0 | 0.00 | 0.00 | 0.00 | 67 | 1011.7 |
| 20260504031541 | 62 | 188 | 1.0 | 7.0 | 0.00 | 0.00 | 0.00 | 65 | 1011.6 |
| 20260504030037 | 63 | 192 | 2.0 | 6.0 | 0.00 | 0.00 | 0.00 | 64 | 1011.3 |
| 20260504024537 | 64 | 205 | 1.0 | 7.0 | 0.00 | 0.00 | 0.00 | 62 | 1011.2 |
| 20260504023036 | 65 | 205 | 1.0 | 8.0 | 0.00 | 0.00 | 0.00 | 61 | 1010.9 |
| 20260504021540 | 66 | 209 | 2.0 | 6.0 | 0.00 | 0.00 | 0.00 | 60 | 1010.9 |
| 20260504020041 | 66 | 213 | 1.0 | 7.0 | 0.00 | 0.00 | 0.00 | 60 | 1010.8 |
| 20260504014538 | 67 | 209 | 3.0 | 9.0 | 0.00 | 0.00 | 0.00 | 59 | 1010.8 |
| 20260504013049 | 67 | 200 | 2.0 | 8.0 | 0.00 | 0.00 | 0.00 | 59 | 1010.6 |
| 20260504011535 | 67 | 190 | 2.0 | 6.0 | 0.00 | 0.00 | 0.00 | 60 | 1010.6 |